IRIDIUM 33 DEB

Satellite information

Favourite Embed

Satellite Type and Status

DEBRISIN ORBIT

Key statistics

Satellite IRIDIUM 33 DEB at a glance.

Uptime

10158

Days in orbit

Revolutions

≈ 14.5

Per day

Orbit

LEO

Low Earth Orbit

Inclination

86.3

Latest

Satellite identification and parameters

Extended collection of information and parameters for IRIDIUM 33 DEB.

Object identification

Identified? True

Debris? True

Object name: IRIDIUM 33 DEB

International designator: 1997-051CE

Object number (NORAD): 34071

Object ID (CCSDS): 34071

Country: UNITED STATES OF AMERICA (US)

Current information (Y/N): Y

RCS size: MEDIUM

Orbital parameters

Period: 99.415 minutes

Inclination: 86.3441 deg

SMA: 7108.77 km

Apoapsis: 734.482 km

Periapsis: 726.787 km

RAAN: 87.0927 deg

Eccentricy: 0.0005412

Argument of periapsis: 296.5275 deg

Mean anomaly: 63.5373 deg

Mean motion: 14.48475293 rev/day

Mean motion (dot): 0.00001499 rev/day2

B* drag term: 0.00039467 1/REarth

Two-line elements (TLE)

Creation date: July 6, 2025, 6:05 p.m.

Reference frame: TEME

Reference center: EARTH

Epoch: July 6, 2025, 6:21 a.m. UTC

TLE line 0: 0 IRIDIUM 33 DEB

TLE line 1: 1 34071U 97051CE 25187.26526605 .00001499 00000-0 39467-3 0 9997

TLE line 2: 2 34071 86.3441 87.0927 0005412 296.5275 63.5373 14.48475293860259

Live tracking on map

Real-time ground track for satellite IRIDIUM 33 DEB.

In-orbit conjunctions

A list of the most updated potential collisions computed for object IRIDIUM 33 DEB.

Target Orbit TCA Probability of collision Miss distance Type
CZ-6A DEB LEO 2025-03-27 12:06:18 0.0003189279 47.0 (m) DEBRIS
FENGYUN 1C DEB SSO 2025-03-07 08:38:06 0.0001844425 66.0 (m) DEBRIS
CZ-6A DEB LEO 2024-11-29 03:26:13 0.0001673926 334.0 (m) DEBRIS
DMSP 5D-2 F13 DEB SSO 2024-11-12 11:59:42 0.0002008246 281.0 (m) DEBRIS

Associated space launch

Iridium provides global mobile telecommunications services using a constellation of 66 low earth orbit satellites in a 86.4° inclined orbit. Although 77 satellites were originally envisioned for the system and spawned the name based on the 77th element in the periodic table, the system has been scaled back. Motorola's Satellite Communications Group designed and manufactured the Iridium satellites with Lockheed Martin providing the LM-700A spacecraft buses.

IRIDIUM 33 DEB was lifted into orbit during the mission ‘Proton-K/17S40 | Iridium 27 to 33’, on board a Proton-K/17S40 space rocket.

The launch took place on Sept. 14, 1997, 1:36 a.m. from 81/23 (81L).

For more information about the launch, click the button.

Launch to space Proton-K/17S40 | Iridium 27 to 33
Proton-K/17S40 | Iridium 27 to 33

Agency: N/A

Status: Launch Successful

Launch date: Sept. 14, 1997, 1:36 a.m. UTC

Rocket: Proton-K/17S40

Launch pad: 81/23 (81L)

Location: Baikonur Cosmodrome, Republic of Kazakhstan

...

Latest news about this satellite

There are no fresh news available about this satellite. Check back as we update our databases every day.


Newsletter sign-up

Weekly statistics, charts and insights to help you stay on top of the space industry.